Time,TemperatureF,DewpointF,PressureIn,WindDirection,WindDirectionDegrees,WindSpeedMPH,WindSpeedGustMPH,Humidity,HourlyPrecipIn,Conditions,Clouds,dailyrainin,SolarRadiationWatts/m^2,SoftwareType,DateUTC
2013-12-13 00:01:00,1.0,-99.9,30.18,NE,34,7.0,10.5,79,0.00,,,0.00,0,,2013-12-13 06:01:00,
2013-12-13 00:11:00,0.9,-99.9,30.18,NNE,17,6.0,12.1,79,0.00,,,0.00,0,,2013-12-13 06:11:00,
2013-12-13 00:21:00,0.7,-99.9,30.18,ENE,60,5.0,7.1,79,0.00,,,0.00,0,,2013-12-13 06:21:00,
2013-12-13 00:31:00,0.5,-99.9,30.18,NNE,16,5.0,7.1,80,0.00,,,0.00,0,,2013-12-13 06:31:00,
2013-12-13 00:41:00,0.5,-99.9,30.18,NNE,14,9.0,12.1,80,0.00,,,0.00,0,,2013-12-13 06:41:00,
2013-12-13 00:51:00,0.4,-99.9,30.17,NE,38,5.0,8.8,80,0.00,,,0.00,0,,2013-12-13 06:51:00,
2013-12-13 01:01:00,0.1,-99.9,30.17,NE,46,10.0,13.8,79,0.00,,,0.00,0,,2013-12-13 07:01:00,
2013-12-13 01:11:00,0.1,-99.9,30.17,NE,56,5.0,8.8,79,0.00,,,0.00,0,,2013-12-13 07:11:00,
2013-12-13 01:21:00,-0.1,-99.9,30.17,NE,53,12.0,17.2,79,0.00,,,0.00,0,,2013-12-13 07:21:00,
2013-12-13 01:31:00,-0.4,-99.9,30.17,NE,46,7.0,12.1,79,0.00,,,0.00,0,,2013-12-13 07:31:00,
2013-12-13 01:41:00,-0.5,-99.9,30.16,NNE,33,8.0,13.8,80,0.00,,,0.00,0,,2013-12-13 07:41:00,
2013-12-13 01:51:00,-0.7,-99.9,30.16,NNE,32,9.0,13.8,79,0.00,,,0.00,0,,2013-12-13 07:51:00,
2013-12-13 02:01:00,-0.8,-99.9,30.16,NE,55,9.0,12.1,79,0.00,,,0.00,0,,2013-12-13 08:01:00,
2013-12-13 02:11:00,-0.9,-99.9,30.17,NNE,18,7.0,8.8,79,0.00,,,0.00,0,,2013-12-13 08:11:00,
2013-12-13 02:21:00,-1.0,-99.9,30.17,NNE,30,8.0,12.1,80,0.00,,,0.00,0,,2013-12-13 08:21:00,
2013-12-13 02:31:00,-1.2,-99.9,30.17,NE,47,7.0,12.1,80,0.00,,,0.00,0,,2013-12-13 08:31:00,
2013-12-13 02:41:00,-1.6,-99.9,30.18,North,11,8.0,13.8,79,0.00,,,0.00,0,,2013-12-13 08:41:00,
2013-12-13 02:51:00,-1.8,-99.9,30.18,ENE,63,11.0,17.2,79,0.00,,,0.00,0,,2013-12-13 08:51:00,
2013-12-13 03:01:00,-1.9,-99.9,30.18,NNE,20,10.0,13.8,78,0.00,,,0.00,0,,2013-12-13 09:01:00,
2013-12-13 03:11:00,-2.3,-99.9,30.18,NE,46,11.0,15.5,78,0.00,,,0.00,0,,2013-12-13 09:11:00,
2013-12-13 03:21:00,-2.2,-99.9,30.18,NE,41,7.0,12.1,78,0.00,,,0.00,0,,2013-12-13 09:21:00,
2013-12-13 03:31:00,-2.2,-99.9,30.19,NE,45,6.0,10.5,78,0.00,,,0.00,0,,2013-12-13 09:31:00,
2013-12-13 03:41:00,-2.4,-99.9,30.19,ENE,58,6.0,10.5,79,0.00,,,0.00,0,,2013-12-13 09:41:00,
2013-12-13 03:51:00,-2.8,-99.9,30.19,NE,45,5.0,7.1,78,0.00,,,0.00,0,,2013-12-13 09:51:00,
2013-12-13 04:01:00,-3.0,-99.9,30.19,ESE,110,7.0,12.1,79,0.00,,,0.00,0,,2013-12-13 10:01:00,
2013-12-13 04:11:00,-3.4,-99.9,30.19,NE,39,8.0,13.8,78,0.00,,,0.00,0,,2013-12-13 10:11:00,
2013-12-13 04:21:00,-3.4,-99.9,30.19,ENE,71,9.0,12.1,78,0.00,,,0.00,0,,2013-12-13 10:21:00,
2013-12-13 04:31:00,-3.7,-99.9,30.19,ENE,57,11.0,15.5,78,0.00,,,0.00,0,,2013-12-13 10:31:00,
2013-12-13 04:41:00,-3.6,-99.9,30.19,NNE,33,8.0,12.1,79,0.00,,,0.00,0,,2013-12-13 10:41:00,
2013-12-13 04:51:00,-4.2,-99.9,30.18,NE,39,11.0,15.5,79,0.00,,,0.00,0,,2013-12-13 10:51:00,
2013-12-13 05:01:00,-4.2,-99.9,30.18,North,11,10.0,15.5,79,0.00,,,0.00,0,,2013-12-13 11:01:00,
2013-12-13 05:11:00,-4.5,-99.9,30.18,North,5,8.0,12.1,79,0.00,,,0.00,0,,2013-12-13 11:11:00,
2013-12-13 05:21:00,-4.6,-99.9,30.18,NNE,18,10.0,13.8,79,0.00,,,0.00,0,,2013-12-13 11:21:00,
2013-12-13 05:31:00,-4.8,-99.9,30.18,NE,52,10.0,15.5,79,0.00,,,0.00,0,,2013-12-13 11:31:00,
2013-12-13 05:41:00,-4.9,-99.9,30.17,NE,37,12.0,17.2,79,0.00,,,0.00,0,,2013-12-13 11:41:00,
2013-12-13 05:51:00,-5.1,-99.9,30.18,NE,42,10.0,17.2,79,0.00,,,0.00,0,,2013-12-13 11:51:00,
2013-12-13 06:01:00,-5.4,-99.9,30.18,ENE,70,9.0,17.2,79,0.00,,,0.00,0,,2013-12-13 12:01:00,
2013-12-13 06:11:00,-5.5,-99.9,30.18,NE,54,9.0,12.1,79,0.00,,,0.00,0,,2013-12-13 12:11:00,
2013-12-13 06:21:00,-5.5,-99.9,30.18,NNE,31,9.0,13.8,79,0.00,,,0.00,0,,2013-12-13 12:21:00,
2013-12-13 06:31:00,-5.7,-99.9,30.17,NNE,26,11.0,18.9,78,0.00,,,0.00,0,,2013-12-13 12:31:00,
2013-12-13 06:41:00,-5.8,-99.9,30.19,ENE,61,9.0,13.8,79,0.00,,,0.00,0,,2013-12-13 12:41:00,
2013-12-13 06:51:00,-5.9,-99.9,30.19,ENE,58,12.0,18.9,78,0.00,,,0.00,0,,2013-12-13 12:51:00,
2013-12-13 07:01:00,-5.9,-99.9,30.20,ENE,71,9.0,13.8,78,0.00,,,0.00,0,,2013-12-13 13:01:00,
2013-12-13 07:11:00,-6.0,-99.9,30.20,ENE,57,11.0,13.8,78,0.00,,,0.00,0,,2013-12-13 13:11:00,
2013-12-13 07:21:00,-6.1,-99.9,30.20,North,0,10.0,13.8,78,0.00,,,0.00,0,,2013-12-13 13:21:00,
2013-12-13 07:31:00,-6.1,-99.9,30.20,ENE,65,8.0,12.1,78,0.00,,,0.00,0,,2013-12-13 13:31:00,
2013-12-13 07:41:00,-5.9,-99.9,30.20,NNE,21,7.0,10.5,79,0.00,,,0.00,0,,2013-12-13 13:41:00,
2013-12-13 07:51:00,-6.0,-99.9,30.20,NE,51,10.0,17.2,78,0.00,,,0.00,0.024,,2013-12-13 13:51:00,
2013-12-13 08:01:00,-6.0,-99.9,30.21,ENE,58,6.0,8.8,79,0.00,,,0.00,0.408,,2013-12-13 14:01:00,
2013-12-13 08:11:00,-6.0,-99.9,30.21,NE,48,7.0,10.5,78,0.00,,,0.00,1.077,,2013-12-13 14:11:00,
2013-12-13 08:21:00,-6.1,-99.9,30.22,NE,52,9.0,17.2,78,0.00,,,0.00,2.571,,2013-12-13 14:21:00,
2013-12-13 08:31:00,-6.0,-99.9,30.22,NNE,19,10.0,18.9,78,0.00,,,0.00,5.546,,2013-12-13 14:31:00,
2013-12-13 08:41:00,-6.0,-99.9,30.23,NE,48,10.0,13.8,78,0.00,,,0.00,9.74,,2013-12-13 14:41:00,
2013-12-13 08:51:00,-5.9,-99.9,30.23,ENE,69,10.0,15.5,78,0.00,,,0.00,15.2,,2013-12-13 14:51:00,
2013-12-13 09:01:00,-6.0,-99.9,30.24,NE,40,10.0,17.2,77,0.00,,,0.00,23.19,,2013-12-13 15:01:00,
2013-12-13 09:11:00,-5.9,-99.9,30.24,NNE,17,7.0,12.1,78,0.00,,,0.00,30.5,,2013-12-13 15:11:00,
2013-12-13 09:21:00,-5.9,-99.9,30.25,NE,51,8.0,12.1,77,0.00,,,0.00,35.38,,2013-12-13 15:21:00,
2013-12-13 09:31:00,-5.6,-99.9,30.25,NE,51,6.0,8.8,78,0.00,,,0.00,46.52,,2013-12-13 15:31:00,
2013-12-13 09:41:00,-5.8,-99.9,30.26,NNE,17,9.0,13.8,77,0.00,,,0.00,50.21,,2013-12-13 15:41:00,
2013-12-13 09:51:00,-5.9,-99.9,30.26,North,1,7.0,10.5,77,0.00,,,0.00,51.53,,2013-12-13 15:51:00,
2013-12-13 10:01:00,-5.7,-99.9,30.26,NE,48,8.0,12.1,77,0.00,,,0.00,64.53,,2013-12-13 16:01:00,
2013-12-13 10:11:00,-5.8,-99.9,30.26,North,8,13.0,20.5,76,0.00,,,0.00,82.7,,2013-12-13 16:11:00,
2013-12-13 10:21:00,-5.4,-99.9,30.26,NE,39,8.0,12.1,77,0.00,,,0.00,89.6,,2013-12-13 16:21:00,
2013-12-13 10:31:00,-5.5,-99.9,30.26,NE,41,9.0,13.8,77,0.00,,,0.00,100.5,,2013-12-13 16:31:00,
2013-12-13 10:41:00,-5.6,-99.9,30.26,NNE,13,6.0,8.8,77,0.00,,,0.00,85,,2013-12-13 16:41:00,
2013-12-13 10:51:00,-5.6,-99.9,30.26,NNE,22,8.0,13.8,77,0.00,,,0.00,97,,2013-12-13 16:51:00,
2013-12-13 11:01:00,-5.4,-99.9,30.26,North,1,6.0,12.1,77,0.00,,,0.00,107.3,,2013-12-13 17:01:00,
2013-12-13 11:11:00,-5.3,-99.9,30.27,NE,41,6.0,10.5,77,0.00,,,0.00,120.1,,2013-12-13 17:11:00,
2013-12-13 11:21:00,-5.4,-99.9,30.26,NE,45,8.0,12.1,76,0.00,,,0.00,119.1,,2013-12-13 17:21:00,
2013-12-13 11:31:00,-5.2,-99.9,30.26,North,6,6.0,10.5,76,0.00,,,0.00,121.6,,2013-12-13 17:31:00,
2013-12-13 11:41:00,-5.5,-99.9,30.26,NNE,12,7.0,12.1,76,0.00,,,0.00,131.6,,2013-12-13 17:41:00,
2013-12-13 11:51:00,-5.3,-99.9,30.26,NNE,22,8.0,13.8,76,0.00,,,0.00,157.1,,2013-12-13 17:51:00,
2013-12-13 12:01:00,-5.2,-99.9,30.25,NE,34,12.0,18.9,75,0.00,,,0.00,170.6,,2013-12-13 18:01:00,
2013-12-13 12:11:00,-5.2,-99.9,30.25,ENE,64,7.0,12.1,76,0.00,,,0.00,173.7,,2013-12-13 18:11:00,
2013-12-13 12:21:00,-4.9,-99.9,30.25,NE,49,9.0,13.8,76,0.00,,,0.00,167.2,,2013-12-13 18:21:00,
2013-12-13 12:31:00,-5.3,-99.9,30.25,NE,55,11.0,15.5,75,0.00,,,0.00,146.1,,2013-12-13 18:31:00,
2013-12-13 12:41:00,-4.9,-99.9,30.25,NNE,17,8.0,10.5,76,0.00,,,0.00,134.8,,2013-12-13 18:41:00,
2013-12-13 12:51:00,-5.2,-99.9,30.25,NE,46,11.0,15.5,76,0.00,,,0.00,128.3,,2013-12-13 18:51:00,
2013-12-13 13:01:00,-5.0,-99.9,30.24,North,9,8.0,12.1,76,0.00,,,0.00,128.7,,2013-12-13 19:01:00,
2013-12-13 13:11:00,-4.9,-99.9,30.25,NE,53,7.0,12.1,77,0.00,,,0.00,115.2,,2013-12-13 19:11:00,
2013-12-13 13:21:00,-4.9,-99.9,30.25,NNE,12,8.0,12.1,77,0.00,,,0.00,105.7,,2013-12-13 19:21:00,
2013-12-13 13:31:00,-5.0,-99.9,30.25,North,10,7.0,12.1,76,0.00,,,0.00,109.6,,2013-12-13 19:31:00,
2013-12-13 13:41:00,-4.8,-99.9,30.25,East,81,6.0,8.8,76,0.00,,,0.00,101.7,,2013-12-13 19:41:00,
2013-12-13 13:51:00,-5.1,-99.9,30.25,NE,42,7.0,10.5,76,0.00,,,0.00,99.6,,2013-12-13 19:51:00,
2013-12-13 14:01:00,-5.1,-99.9,30.25,NE,50,9.0,12.1,76,0.00,,,0.00,96.9,,2013-12-13 20:01:00,
2013-12-13 14:11:00,-4.9,-99.9,30.25,NE,34,6.0,10.5,77,0.00,,,0.00,93.7,,2013-12-13 20:11:00,
2013-12-13 14:21:00,-5.0,-99.9,30.25,ENE,66,7.0,12.1,77,0.00,,,0.00,93.1,,2013-12-13 20:21:00,
2013-12-13 14:31:00,-5.1,-99.9,30.25,NNE,33,9.0,15.5,77,0.00,,,0.00,90.8,,2013-12-13 20:31:00,
2013-12-13 14:41:00,-5.0,-99.9,30.25,NE,44,7.0,10.5,76,0.00,,,0.00,87.3,,2013-12-13 20:41:00,
2013-12-13 14:51:00,-5.3,-99.9,30.26,NE,38,6.0,8.8,77,0.00,,,0.00,81.5,,2013-12-13 20:51:00,
2013-12-13 15:01:00,-5.3,-99.9,30.26,NE,52,7.0,10.5,76,0.00,,,0.00,74.97,,2013-12-13 21:01:00,
2013-12-13 15:11:00,-5.2,-99.9,30.26,NNE,13,7.0,10.5,76,0.00,,,0.00,59.77,,2013-12-13 21:11:00,
2013-12-13 15:21:00,-5.0,-99.9,30.26,NNE,20,8.0,13.8,77,0.00,,,0.00,52.44,,2013-12-13 21:21:00,
2013-12-13 15:31:00,-5.0,-99.9,30.26,NNE,15,7.0,12.1,77,0.00,,,0.00,49.28,,2013-12-13 21:31:00,
2013-12-13 15:41:00,-5.1,-99.9,30.26,NE,49,5.0,7.1,78,0.00,,,0.00,41.56,,2013-12-13 21:41:00,
2013-12-13 15:51:00,-5.4,-99.9,30.26,NE,53,10.0,15.5,77,0.00,,,0.00,31.09,,2013-12-13 21:51:00,
2013-12-13 16:01:00,-5.6,-99.9,30.26,NE,39,9.0,12.1,76,0.00,,,0.00,27.34,,2013-12-13 22:01:00,
2013-12-13 16:11:00,-5.7,-99.9,30.26,NNE,27,9.0,13.8,77,0.00,,,0.00,19.88,,2013-12-13 22:11:00,
2013-12-13 16:21:00,-5.8,-99.9,30.27,NNE,33,7.0,10.5,77,0.00,,,0.00,11.19,,2013-12-13 22:21:00,
2013-12-13 16:31:00,-5.6,-99.9,30.28,North,6,4.0,8.8,78,0.00,,,0.00,5.492,,2013-12-13 22:31:00,
2013-12-13 16:41:00,-6.0,-99.9,30.28,ENE,65,9.0,12.1,76,0.00,,,0.00,1.722,,2013-12-13 22:41:00,
2013-12-13 16:51:00,-6.2,-99.9,30.28,NE,54,9.0,15.5,76,0.00,,,0.00,0.815,,2013-12-13 22:51:00,
2013-12-13 17:01:00,-6.0,-99.9,30.29,NE,48,7.0,12.1,77,0.00,,,0.00,0.272,,2013-12-13 23:01:00,
2013-12-13 17:11:00,-6.0,-99.9,30.29,NE,35,9.0,13.8,76,0.00,,,0.00,0,,2013-12-13 23:11:00,
2013-12-13 17:21:00,-6.0,-99.9,30.28,North,5,8.0,10.5,77,0.00,,,0.00,0,,2013-12-13 23:21:00,
2013-12-13 17:31:00,-5.9,-99.9,30.29,NNE,14,9.0,18.9,77,0.00,,,0.00,0,,2013-12-13 23:31:00,
2013-12-13 17:41:00,-6.0,-99.9,30.29,North,0,5.0,5.4,77,0.00,,,0.00,0,,2013-12-13 23:41:00,
2013-12-13 17:51:00,-6.0,-99.9,30.30,NE,55,6.0,8.8,77,0.00,,,0.00,0,,2013-12-13 23:51:00,
2013-12-13 18:01:00,-5.9,-99.9,30.30,NNE,21,6.0,8.8,78,0.00,,,0.00,0,,2013-12-14 00:01:00,
2013-12-13 18:11:00,-6.0,-99.9,30.30,NE,43,5.0,8.8,77,0.00,,,0.00,0,,2013-12-14 00:11:00,
2013-12-13 18:21:00,-5.9,-99.9,30.31,NE,43,6.0,8.8,77,0.00,,,0.00,0,,2013-12-14 00:21:00,
2013-12-13 18:31:00,-5.9,-99.9,30.31,ENE,57,6.0,10.5,77,0.00,,,0.00,0,,2013-12-14 00:31:00,
2013-12-13 18:41:00,-6.2,-99.9,30.31,North,8,8.0,12.1,76,0.00,,,0.00,0,,2013-12-14 00:41:00,
2013-12-13 18:51:00,-6.2,-99.9,30.31,NNE,12,6.0,8.8,76,0.00,,,0.00,0,,2013-12-14 00:51:00,
2013-12-13 19:01:00,-6.2,-99.9,30.32,NNE,20,7.0,10.5,76,0.00,,,0.00,0,,2013-12-14 01:01:00,
2013-12-13 19:11:00,-6.0,-99.9,30.32,NNE,33,6.0,8.8,77,0.00,,,0.00,0,,2013-12-14 01:11:00,
2013-12-13 19:21:00,-6.3,-99.9,30.32,NE,39,8.0,13.8,76,0.00,,,0.00,0,,2013-12-14 01:21:00,
2013-12-13 19:31:00,-6.2,-99.9,30.32,NNE,20,6.0,8.8,76,0.00,,,0.00,0,,2013-12-14 01:31:00,
2013-12-13 19:41:00,-6.3,-99.9,30.32,NNE,13,10.0,13.8,76,0.00,,,0.00,0,,2013-12-14 01:41:00,
2013-12-13 19:51:00,-6.2,-99.9,30.32,NNE,14,7.0,10.5,76,0.00,,,0.00,0,,2013-12-14 01:51:00,
2013-12-13 20:01:00,-6.1,-99.9,30.32,NNE,25,5.0,7.1,78,0.00,,,0.00,0,,2013-12-14 02:01:00,
2013-12-13 20:11:00,-6.2,-99.9,30.32,NE,49,5.0,8.8,79,0.00,,,0.00,0,,2013-12-14 02:11:00,
2013-12-13 20:21:00,-6.3,-99.9,30.32,North,7,6.0,8.8,79,0.00,,,0.00,0,,2013-12-14 02:21:00,
2013-12-13 20:31:00,-6.2,-99.9,30.32,NE,55,4.0,7.1,80,0.00,,,0.00,0,,2013-12-14 02:31:00,
2013-12-13 20:41:00,-6.2,-99.9,30.32,NE,53,7.0,10.5,78,0.00,,,0.00,0,,2013-12-14 02:41:00,
2013-12-13 20:51:00,-6.0,-99.9,30.32,ENE,63,6.0,10.5,79,0.00,,,0.00,0,,2013-12-14 02:51:00,
2013-12-13 21:01:00,-5.9,-99.9,30.32,NE,47,5.0,7.1,78,0.00,,,0.00,0,,2013-12-14 03:01:00,
2013-12-13 21:11:00,-5.8,-99.9,30.32,ENE,62,3.0,5.4,79,0.00,,,0.00,0,,2013-12-14 03:11:00,
2013-12-13 21:21:00,-5.8,-99.9,30.32,NNE,17,7.0,10.5,79,0.00,,,0.00,0,,2013-12-14 03:21:00,
2013-12-13 21:31:00,-5.6,-99.9,30.31,NE,47,5.0,7.1,79,0.00,,,0.00,0,,2013-12-14 03:31:00,
2013-12-13 21:41:00,-5.5,-99.9,30.31,ESE,111,5.0,7.1,80,0.00,,,0.00,0,,2013-12-14 03:41:00,
2013-12-13 21:51:00,-5.3,-99.9,30.31,ENE,66,5.0,7.1,79,0.00,,,0.00,0,,2013-12-14 03:51:00,
2013-12-13 22:01:00,-5.1,-99.9,30.31,NE,42,6.0,10.5,79,0.00,,,0.00,0,,2013-12-14 04:01:00,
2013-12-13 22:11:00,-5.1,-99.9,30.30,NNE,27,4.0,7.1,79,0.00,,,0.00,0,,2013-12-14 04:11:00,
2013-12-13 22:21:00,-5.0,-99.9,30.31,NE,41,7.0,10.5,79,0.00,,,0.00,0,,2013-12-14 04:21:00,
2013-12-13 22:31:00,-5.0,-99.9,30.31,NE,51,7.0,12.1,79,0.00,,,0.00,0,,2013-12-14 04:31:00,
2013-12-13 22:41:00,-4.9,-99.9,30.31,NE,49,5.0,8.8,80,0.00,,,0.00,0,,2013-12-14 04:41:00,
2013-12-13 22:51:00,-4.9,-99.9,30.31,NE,51,5.0,7.1,80,0.00,,,0.00,0,,2013-12-14 04:51:00,
2013-12-13 23:01:00,-4.9,-99.9,30.30,NE,48,3.0,5.4,80,0.00,,,0.00,0,,2013-12-14 05:01:00,
2013-12-13 23:11:00,-4.8,-99.9,30.31,NNE,33,4.0,7.1,80,0.00,,,0.00,0,,2013-12-14 05:11:00,
2013-12-13 23:21:00,-4.7,-99.9,30.31,ENE,68,1.0,2.1,81,0.00,,,0.00,0,,2013-12-14 05:21:00,
2013-12-13 23:31:00,-4.6,-99.9,30.30,NE,49,2.0,3.8,81,0.00,,,0.00,0,,2013-12-14 05:31:00,
2013-12-13 23:41:00,-4.6,-99.9,30.30,NE,43,4.0,5.4,79,0.00,,,0.00,0,,2013-12-14 05:41:00,
2013-12-13 23:51:00,-4.6,-99.9,30.30,NNE,17,3.0,5.4,80,0.00,,,0.00,0,,2013-12-14 05:51:00,